#timestamp,LO_Frequency,Hit,StdDev 
1542862815.6,286047002.8,N
1542862835.4,286047002.2,N
1542862855.2,286047004.4,N
1542862875.1,286047002.1,N
1542862876.0,286047002.1,N
1542862895.8,286047000.6,N
1542862915.7,286046999.9,N
1542862935.5,286047001.0,N
1542862955.3,286046998.6,N
1542862975.2,286047000.8,N
1542862995.0,286047000.2,N
1542862995.9,286047000.2,N
1542863045.8,286047002.2,E
1542863055.7,286047001.1,N
1542863075.5,286046998.8,P
1542863095.4,286046999.2,N
1542863115.2,286046999.5,N
1542863135.1,286046996.6,Y
1542863136.0,286046996.6,P
1542863155.8,286046998.2,N
1542863175.6,286047001.0,N
1542863195.5,286046998.6,N
1542863215.3,286046998.6,N
1542863235.2,286046998.2,N
1542863255.9,286046998.8,N
1542863275.7,286046996.5,N
1542863295.6,286046997.3,N
1542863315.4,286046997.2,N
1542863335.3,286046996.5,N
1542863355.1,286046999.6,N
1542863356.0,286046999.6,N
1542863375.8,286046999.6,N
1542863395.7,286046999.6,N
1542863415.5,286046996.9,N
1542863435.3,286046998.9,N
1542863455.2,286046998.9,N
1542863475.0,286047001.1,N
1542863475.9,286047001.1,N
1542863495.8,286046998.2,N
1542863515.6,286047000.9,N
1542863535.4,286047002.8,N
1542863555.3,286047002.0,N
1542863575.1,286046999.8,N
1542863595.8,286047002.7,N
1542863615.7,286047000.6,N
1542863635.5,286046998.5,N
1542863655.4,286046998.9,N
1542863675.2,286047001.1,N
1542863695.0,286046998.1,N
1542863695.9,286046998.1,N
1542863715.8,286047001.2,N
1542863735.6,286046998.1,N
1542863755.4,286046998.1,N
1542863775.3,286046998.4,N
1542863795.1,286046998.5,N
1542863815.9,286046998.8,N
1542863835.7,286046998.8,N
1542863855.5,286046998.8,N
1542863875.4,286046998.5,N
1542863895.2,286046998.2,N
1542863915.0,286046999.1,N
1542863915.9,286046999.1,N
1542863935.8,286047001.1,N
1542863955.6,286047000.8,N
1542863975.5,286046998.5,N
1542863995.3,286046999.4,N
1542864015.1,286047000.8,N
1542864035.9,286046998.4,N
1542864055.7,286046998.3,N
1542864075.5,286047001.1,N
1542864095.4,286047000.9,N
1542864115.2,286047001.0,N
1542864135.1,286046998.7,N
1542864136.0,286046998.7,N
1542864155.8,286046998.5,N
1542864175.6,286046998.8,N
1542864195.5,286046996.5,Y
1542864215.3,286046998.7,P
1542864265.2,286046998.2,E
1542864275.1,286047000.0,N
1542864295.8,286047002.6,P
1542864315.7,286047001.9,N
1542864335.5,286047001.8,N
1542864355.4,286047003.5,Y
1542864375.2,286047002.2,P
1542864395.0,286046999.9,N
1542864395.9,286046999.9,N
1542864415.8,286047001.1,N
1542864435.6,286047000.1,N
1542864455.4,286047000.3,N
1542864475.3,286046998.6,N
1542864495.1,286046998.6,N
1542864515.9,286047001.1,N
1542864535.7,286047000.4,N
1542864555.5,286046999.9,N
1542864575.4,286047001.0,N
1542864595.2,286047000.8,N
1542864615.0,286047000.3,N
1542864615.9,286047000.3,N
1542864635.8,286047000.5,N
1542864655.6,286047002.5,N
1542864675.5,286047002.0,N
1542864695.3,286047002.3,N
1542864715.1,286047000.4,N
1542864735.9,286047000.4,N
1542864755.7,286047000.2,N
1542864775.6,286047000.5,N
1542864795.4,286046999.9,N
1542864815.2,286046999.7,N
1542864835.1,286046999.8,N
1542864836.0,286046999.8,N
1542864855.8,286047002.7,N
1542864875.6,286047002.7,N
1542864895.5,286047002.6,N
1542864915.3,286047000.3,N
1542864935.2,286047002.4,N
1542864955.9,286047000.0,N
1542864975.7,286047000.3,N
1542864995.6,286047000.7,N
1542865015.4,286047000.2,N
1542865035.2,286046999.8,N
1542865055.1,286046999.8,N
1542865056.0,286046999.8,N
1542865075.8,286047000.2,N
1542865095.7,286047000.6,N
1542865115.5,286047000.4,N
1542865135.3,286047000.0,N
1542865155.2,286046999.8,N
1542865175.0,286047002.7,N
1542865175.9,286047002.7,N
1542865195.8,286047000.0,N
1542865215.6,286047000.3,N
1542865235.4,286047000.2,N
1542865255.3,286047002.0,N
1542865275.1,286047002.1,N
1542865295.8,286047001.7,N
1542865315.7,286047001.3,N
1542865335.5,286047001.9,N
1542865355.4,286047002.2,N
1542865375.2,286047001.0,N
1542865395.0,286047000.6,N
1542865395.9,286047000.6,N
1542865415.8,286047000.8,N
1542865435.6,286047000.3,N
1542865455.5,286046999.9,N
1542865475.3,286046999.9,N
1542865495.1,286046999.9,N
1542865515.9,286047000.6,N
1542865535.7,286046999.8,N
1542865555.5,286046999.9,N
1542865575.4,286047000.5,N
1542865595.2,286046998.2,N
1542865615.1,286046999.8,N
1542865616.0,286046999.8,N
1542865635.8,286047002.5,N
1542865655.6,286047002.4,N
1542865675.5,286047002.5,N
1542865695.3,286047002.4,N
1542865715.1,286046999.8,N
1542865735.9,286046999.7,N
1542865755.7,286047002.8,N
1542865775.6,286047002.5,N
1542865795.4,286047002.2,N
1542865815.2,286047001.9,N
1542865835.1,286047002.1,N
1542865836.0,286047002.1,N
1542865855.8,286047001.3,N
1542865875.6,286047001.6,N
1542865895.5,286047002.7,N
1542865915.3,286047002.2,N
1542865935.2,286047002.0,N
1542865955.9,286047001.6,N
1542865975.7,286047001.9,N
1542865995.6,286047002.5,N
1542866015.4,286047002.7,N
1542866035.2,286047002.0,N
1542866055.1,286047001.5,N
1542866056.0,286047001.5,N
1542866075.8,286047004.0,Y
1542866095.7,286047000.5,P
1542866115.5,286047000.6,N
1542866135.3,286047000.2,N
1542866155.2,286047000.7,N
1542866175.0,286046999.0,N
1542866175.9,286046999.0,N
1542866195.8,286046999.4,N
1542866215.6,286046999.0,N
1542866235.4,286046998.4,N
1542866255.3,286046999.4,N
1542866275.1,286046996.5,Y
1542866295.9,286046999.1,P
1542866315.7,286046999.4,N
1542866335.5,286046999.3,N
1542866355.4,286046999.5,N
1542866375.2,286047001.0,Y
1542866395.0,286046999.9,P
1542866395.9,286046999.9,N
